Tampa, FL

11:15 PM EDT on September 30, 2016 (GMT -0400)
Vandenberg

Weather History for KVDF - October, 2012

Change the Weather History Date:

Tuesday, October 9, 2012

  Actual Average (KTPA) Record (KTPA)
Temperature  
Mean Temperature 68 °F 78 °F  
Max Temperature 86 °F 86 °F 95 °F (1941)
Min Temperature 50 °F 70 °F 53 °F (2000)
Degree Days  
Heating Degree Days 0 0  
Month to date heating degree days 0  
Since 1 July heating degree days 0  
Cooling Degree Days 3 13  
Month to date cooling degree days 124  
Year to date cooling degree days 3140  
Growing Degree Days 18 (Base 50)    
Moisture  
Dew Point 65 °F    
Average Humidity 86    
Maximum Humidity 100    
Minimum Humidity 62    
Precipitation  
Precipitation 0.00 in 0.09 in 1.58 in (1993)
Month to date precipitation 0.92  
Year to date precipitation 40.94  
Sea Level Pressure  
Sea Level Pressure 30.03 in    
Wind  
Wind Speed 1 mph (NE)    
Max Wind Speed 6 mph    
Max Gust Speed -    
Visibility 7 miles    
Events Fog    
T = Trace of Precipitation, MM = Missing Value Source: NWS Daily Summary

Daily Weather History Graph

Daily Weather History Graph

Search for Another Location

Airport or City:

Trip Planner

Search our weather history database for the weather conditions in past years. The results will help you decide how hot, cold, wet, or windy it might be!

Date:

Astronomy

Oct. 09, 2012 Rise Set
Actual Time 7:26 AM EDT 7:05 PM EDT
Civil Twilight 7:03 AM EDT 7:29 PM EDT
Nautical Twilight 6:35 AM EDT 7:56 PM EDT
Astronomical Twilight 6:08 AM EDT 8:23 PM EDT
Moon 1:31 AM EDT (10/9) 3:05 PM EDT (10/9)
Length of Visible Light 12h 26m
Length of Day
11h 39m
Last Quarter, 37% of the Moon is Illuminated
Oct 9
Last Quarter
Oct 15
New
Oct 21
First Quarter
Oct 29
Full
Nov 6
Last Quarter

Hourly Weather History & Observations

Time (EDT) Temp. Heat Index Dew Point Humidity Pressure Visibility Wind Dir Wind Speed Gust Speed Precip Events Conditions
12:35 AM 68.0 °F - 68.0 °F 100% 30.03 in 4.0 mi Calm Calm - N/A   Overcast
12:55 AM 68.0 °F - 64.4 °F 88% 30.02 in 5.0 mi Calm Calm - N/A   Mostly Cloudy
1:15 AM 68.0 °F - 64.4 °F 88% 30.01 in 5.0 mi Calm Calm - N/A   Scattered Clouds
1:35 AM 66.2 °F - 64.4 °F 94% 30.01 in 3.0 mi Calm Calm - N/A   Clear
1:55 AM 66.2 °F - 64.4 °F 94% 30.01 in 3.0 mi Calm Calm - N/A   Clear
2:15 AM 64.4 °F - 62.6 °F 94% 30.00 in 3.0 mi Calm Calm - N/A   Clear
2:55 AM 64.4 °F - 62.6 °F 94% 29.99 in 3.0 mi Calm Calm - N/A   Clear
3:15 AM 64.4 °F - 62.6 °F 94% 29.99 in 3.0 mi Calm Calm - N/A   Clear
3:35 AM 64.4 °F - 62.6 °F 94% 29.99 in 1.5 mi Calm Calm - N/A   Mist
4:15 AM 62.6 °F - 60.8 °F 94% 29.99 in 4.0 mi Calm Calm - N/A   Clear
4:35 AM 62.6 °F - 60.8 °F 94% 29.99 in 3.0 mi Calm Calm - N/A   Clear
4:55 AM 62.6 °F - 60.8 °F 94% 29.99 in 3.0 mi Calm Calm - N/A   Clear
5:15 AM 62.6 °F - 60.8 °F 94% 30.00 in 2.0 mi Calm Calm - N/A   Clear
5:35 AM 62.6 °F - 60.8 °F 94% 30.00 in 3.0 mi Calm Calm - N/A   Clear
5:55 AM 62.6 °F - 60.8 °F 94% 30.00 in 3.0 mi Calm Calm - N/A   Clear
6:15 AM 60.8 °F - 60.8 °F 100% 30.00 in 1.5 mi Calm Calm - N/A   Mist
6:35 AM 60.8 °F - 59.0 °F 94% 30.01 in 3.0 mi Calm Calm - N/A   Clear
7:15 AM 60.8 °F - 59.0 °F 94% 30.01 in 0.8 mi Calm Calm - N/A   Mist
7:35 AM 59.0 °F - 59.0 °F 100% 30.02 in 1.8 mi Calm Calm - N/A   Mist
7:55 AM 60.8 °F - 59.0 °F 94% 30.02 in 2.5 mi Calm Calm - N/A   Scattered Clouds
8:15 AM 60.8 °F - 60.8 °F 100% 30.03 in 1.0 mi North - - N/A   Overcast
8:35 AM 60.8 °F - 60.8 °F 100% 30.03 in 0.2 mi North - - N/A Fog Fog
8:55 AM 62.6 °F - 60.8 °F 94% 30.04 in 0.2 mi North - - N/A Fog Fog
9:15 AM 62.6 °F - 60.8 °F 94% 30.04 in 1.2 mi North - - N/A   Overcast
9:35 AM 62.6 °F - 60.8 °F 94% 30.05 in 1.8 mi NE 4.6 mph - N/A   Overcast
9:55 AM 60.8 °F - 60.8 °F 100% 30.06 in 2.0 mi NNE 3.5 mph - N/A   Overcast
10:15 AM 60.8 °F - 59.0 °F 94% 30.06 in 3.0 mi NE 3.5 mph - N/A   Overcast
10:35 AM 57.2 °F - 55.4 °F 94% 30.06 in 5.0 mi NE 5.8 mph - N/A   Overcast
10:55 AM 50.0 °F - 48.2 °F 94% 30.06 in 5.0 mi Calm Calm - N/A   Overcast
11:15 AM 51.8 °F - 51.8 °F 100% 30.06 in 10.0 mi NE 4.6 mph - N/A   Overcast
11:35 AM 60.8 °F - 59.0 °F 94% 30.06 in 10.0 mi ENE 4.6 mph - N/A   Overcast
11:55 AM 64.4 °F - 62.6 °F 94% 30.06 in 10.0 mi NNE 3.5 mph - N/A   Overcast
12:15 PM 68.0 °F - 62.6 °F 83% 30.06 in 10.0 mi ENE 4.6 mph - N/A   Overcast
12:35 PM 69.8 °F - 64.4 °F 83% 30.06 in 10.0 mi NNE 3.5 mph - N/A   Overcast
12:55 PM 73.4 °F - 68.0 °F 83% 30.06 in 10.0 mi NNE 5.8 mph - N/A   Overcast
1:15 PM 75.2 °F - 69.8 °F 83% 30.06 in 10.0 mi Calm Calm - N/A   Overcast
1:35 PM 80.6 °F 84.6 °F 71.6 °F 74% 30.05 in 10.0 mi NNW 3.5 mph - N/A   Scattered Clouds
1:55 PM 82.4 °F 87.2 °F 71.6 °F 70% 30.03 in 10.0 mi East 4.6 mph - N/A   Scattered Clouds
2:15 PM 86.0 °F 91.8 °F 71.6 °F 62% 30.03 in 10.0 mi ESE 3.5 mph - N/A   Scattered Clouds
2:35 PM 86.0 °F 91.8 °F 71.6 °F 62% 30.02 in 10.0 mi NE 3.5 mph - N/A   Clear
2:55 PM 86.0 °F 91.8 °F 71.6 °F 62% 30.01 in 10.0 mi North 5.8 mph - N/A   Scattered Clouds
3:15 PM 86.0 °F 91.8 °F 71.6 °F 62% 30.01 in 10.0 mi NNE 4.6 mph - N/A   Mostly Cloudy
3:35 PM 82.4 °F 87.2 °F 71.6 °F 70% 30.01 in 10.0 mi NNE 3.5 mph - N/A   Mostly Cloudy
3:55 PM 86.0 °F 91.8 °F 71.6 °F 62% 30.01 in 10.0 mi ENE 4.6 mph - N/A   Mostly Cloudy
4:15 PM 86.0 °F 91.8 °F 71.6 °F 62% 30.00 in 10.0 mi ENE 5.8 mph - N/A   Mostly Cloudy
4:35 PM 82.4 °F 87.2 °F 71.6 °F 70% 30.00 in 10.0 mi Calm Calm - N/A   Mostly Cloudy
4:55 PM 84.2 °F 89.6 °F 71.6 °F 66% 30.00 in 10.0 mi NE 3.5 mph - N/A   Mostly Cloudy
5:15 PM 84.2 °F 89.6 °F 71.6 °F 66% 30.00 in 10.0 mi Calm Calm - N/A   Mostly Cloudy
5:35 PM 84.2 °F 89.6 °F 71.6 °F 66% 30.00 in 10.0 mi NE 3.5 mph - N/A   Scattered Clouds
5:55 PM 84.2 °F 89.6 °F 71.6 °F 66% 30.00 in 10.0 mi Calm Calm - N/A   Clear
6:15 PM 82.4 °F 87.2 °F 71.6 °F 70% 30.00 in 10.0 mi NNE 3.5 mph - N/A   Clear
6:55 PM 78.8 °F - 71.6 °F 78% 30.01 in 10.0 mi NNE 3.5 mph - N/A   Clear
7:15 PM 77.0 °F - 69.8 °F 78% 30.01 in 10.0 mi Calm Calm - N/A   Clear
7:35 PM 75.2 °F - 69.8 °F 83% 30.02 in 10.0 mi Calm Calm - N/A   Scattered Clouds
7:55 PM 73.4 °F - 69.8 °F 88% 30.02 in 10.0 mi Calm Calm - N/A   Mostly Cloudy
8:15 PM 73.4 °F - 69.8 °F 88% 30.03 in 10.0 mi Calm Calm - N/A   Overcast
8:35 PM 71.6 °F - 68.0 °F 88% 30.04 in 10.0 mi Calm Calm - N/A   Scattered Clouds
8:55 PM 71.6 °F - 68.0 °F 88% 30.04 in 10.0 mi Calm Calm - N/A   Scattered Clouds
9:15 PM 71.6 °F - 68.0 °F 88% 30.04 in 10.0 mi Calm Calm - N/A   Scattered Clouds
9:35 PM 71.6 °F - 68.0 °F 88% 30.05 in 7.0 mi Calm Calm - N/A   Clear
9:55 PM 71.6 °F - 68.0 °F 88% 30.05 in 10.0 mi Calm Calm - N/A   Clear
10:15 PM 69.8 °F - 68.0 °F 94% 30.06 in 10.0 mi ENE 3.5 mph - N/A   Clear
10:35 PM 69.8 °F - 68.0 °F 94% 30.06 in 10.0 mi Calm Calm - N/A   Clear
10:55 PM 69.8 °F - 68.0 °F 94% 30.07 in 10.0 mi Calm Calm - N/A   Scattered Clouds
11:15 PM 69.8 °F - 68.0 °F 94% 30.07 in 10.0 mi ENE 3.5 mph - N/A   Clear
11:35 PM 69.8 °F - 66.2 °F 88% 30.07 in 10.0 mi Calm Calm - N/A   Mostly Cloudy
11:55 PM 69.8 °F - 68.0 °F 94% 30.07 in 10.0 mi Calm Calm - N/A   Overcast